Regional Weather Roundup
Issued by NWS

Home | Current Version | Previous Version | Text Only | Print | Product List | Glossary On
Versions: 1 2 3 4 5 6 7 8 9 10 11 12 13 14 15 16 17 18 19 20 21 22 23 24 25 26 27 28 29 30 31 32 33 34 35 36 37 38 39 40 41 42 43 44 45 46 47 48 49 50
000
ASUS46 KPQR 160710
RWROR

OREGON REGIONAL WEATHER ROUNDUP
NATIONAL WEATHER SERVICE PORTLAND OR
1200 AM PDT TUE SEP 16 2014

NOTE: "FAIR" INDICATES FEW OR NO CLOUDS BELOW 12,000 FEET WITH
NO SIGNIFICANT WEATHER AND/OR OBSTRUCTIONS TO VISIBILITY.

ORZ001>013-160800-
NORTHWEST OREGON


CITY           SKY/WX    TMP DP  RH WIND       PRES   REMARKS
ASTORIA        MOCLDY    57  52  83 S7        29.89R
NEWPORT        CLOUDY    55  54  94 SE3       29.95S
PORTLAND       MOCLDY    66  52  60 CALM      29.84R
VANCOUVER WA   PTCLDY    64  50  60 CALM      29.83R
SCAPPOOSE      PTCLDY    61  52  72 W3        29.83R
HILLSBORO      MOCLDY    63  51  65 CALM      29.83R
AURORA         PTCLDY    62  49  62 SW6       29.86R
MCMINNVILLE    MOCLDY    59  51  75 S14       29.86R
SALEM          PTCLDY    60  49  66 S7        29.87R
CORVALLIS      PTCLDY    55  50  82 NW8       29.91R
EUGENE         PTCLDY    56  49  77 S10       29.91S
$$

ORZ021-028-160800-
SOUTHWEST OREGON


CITY           SKY/WX    TMP DP  RH WIND       PRES   REMARKS
NORTH BEND     PTCLDY    55  55 100 SE5       29.93S
BROOKINGS      PTSUNNY   55  53  93 E3        29.94R
ROSEBURG       CLEAR     63  46  54 N7        29.90R
SEXTON SUMMIT  PTCLDY    57  44  62 NW7       29.97S
MEDFORD        CLEAR     71  45  39 NW5       29.86R
$$

ORZ009-041-160800-
COLUMBIA GORGE


CITY           SKY/WX    TMP DP  RH WIND       PRES   REMARKS
TROUTDALE      PTCLDY    63  49  60 CALM      29.82R
THE DALLES     MOCLDY    63  34  33 CALM      29.84R
$$

ORZ029>031-042>050-061>064-160800-
EASTERN OREGON


CITY           SKY/WX    TMP DP  RH WIND       PRES   REMARKS
REDMOND        CLEAR     59  29  31 W5        29.94S
BEND           SUNNY     63  32  31 SW3       29.98S
KLAMATH FALLS  PTCLDY    60  35  39 SE7       30.01S
LAKEVIEW       CLEAR     54  30  40 E5        30.09S
HERMISTON      PTCLDY    57  40  52 SE7       29.84S
PENDLETON      PTCLDY    58  32  37 NE5       29.86F
JOHN DAY       MOSUNNY   68  47  47 SE6       29.99S
MEACHAM        PTCLDY    49  36  61 CALM      29.98F
LA GRANDE      MOCLDY    59  32  36 CALM      29.93S
BAKER CITY     MOCLDY    59  36  42 CALM      29.99R
BURNS          PTCLDY    56  43  61 CALM      30.03R
ROME             N/A     69  45  41 SW7       30.01R
ONTARIO        TSTM      66  53  63 VRB3      29.94R
$$


USA.gov is the U.S. government's official web portal to all federal, state and local government web resources and services.